• In Lithuania
  • List of Countries
  • For 7 days
  • Water Temperature
  • Satellite Maps
  • Weather Map
  • Weather Widgets
  • user-avatar
    Login

    Hourly Weather Suvodskaya

    Today, 16 November, Friday

    Time Temperature Precipitation Wind Pressure Humidity
    00:00 -6°C° 0 mm 6 mps 774 mmHg 29%
    01:00 -6°C° 0 mm 6 mps 774 mmHg 29%
    02:00 -6°C° 0 mm 6 mps 774 mmHg 29%
    03:00 -6°C° 0 mm 6 mps 774 mmHg 29%
    04:00 -7°C° 0 mm 7 mps 774 mmHg 29%
    05:00 -7°C° 0 mm 7 mps 774 mmHg 29%
    06:00 -7°C° 0 mm 7 mps 774 mmHg 29%
    07:00 -6°C° 0 mm 7 mps 774 mmHg 29%
    08:00 -6°C° 0 mm 7 mps 775 mmHg 28%
    09:00 -4°C° 0 mm 7 mps 775 mmHg 28%
    10:00 -3°C° 0 mm 7 mps 775 mmHg 27%
    11:00 -2°C° 0 mm 7 mps 775 mmHg 27%
    12:00 -1°C° 0 mm 7 mps 775 mmHg 27%
    13:00 -1°C° 0 mm 7 mps 774 mmHg 27%
    14:00 -1°C° 0 mm 7 mps 774 mmHg 28%
    15:00 -1°C° 0 mm 7 mps 774 mmHg 29%
    16:00 -2°C° 0 mm 7 mps 774 mmHg 30%
    17:00 -3°C° 0 mm 7 mps 774 mmHg 31%
    18:00 -4°C° 0 mm 6 mps 775 mmHg 32%
    19:00 -4°C° 0 mm 6 mps 775 mmHg 33%
    20:00 -4°C° 0 mm 6 mps 775 mmHg 33%
    21:00 -5°C° 0 mm 6 mps 775 mmHg 33%
    22:00 -5°C° 0 mm 6 mps 775 mmHg 34%
    23:00 -5°C° 0 mm 6 mps 775 mmHg 34%

    Tomorrow, 17 November, Saturday

    Time Temperature Precipitation Wind Pressure Humidity
    00:00 -5°C° 0 mm 6 mps 774 mmHg 35%
    01:00 -5°C° 0 mm 5 mps 774 mmHg 35%
    02:00 -6°C° 0 mm 5 mps 774 mmHg 36%
    03:00 -6°C° 0 mm 5 mps 774 mmHg 37%
    04:00 -6°C° 0 mm 5 mps 774 mmHg 37%
    05:00 -6°C° 0 mm 5 mps 773 mmHg 37%
    06:00 -6°C° 0 mm 5 mps 773 mmHg 37%
    07:00 -5°C° 0 mm 5 mps 773 mmHg 36%
    08:00 -5°C° 0 mm 5 mps 773 mmHg 34%
    09:00 -4°C° 0 mm 5 mps 773 mmHg 32%
    10:00 -2°C° 0 mm 5 mps 773 mmHg 30%
    11:00 -1°C° 0 mm 5 mps 773 mmHg 28%
    12:00 0°C° 0 mm 5 mps 772 mmHg 26%
    13:00 0°C° 0 mm 4 mps 772 mmHg 27%
    14:00 0°C° 0 mm 4 mps 771 mmHg 27%
    15:00 0°C° 0 mm 4 mps 771 mmHg 28%
    16:00 0°C° 0 mm 3 mps 771 mmHg 30%
    17:00 -1°C° 0 mm 3 mps 770 mmHg 32%
    18:00 -2°C° 0 mm 3 mps 770 mmHg 34%
    19:00 -2°C° 0 mm 3 mps 770 mmHg 34%
    20:00 -2°C° 0 mm 2 mps 769 mmHg 34%
    21:00 -3°C° 0 mm 2 mps 769 mmHg 34%
    22:00 -3°C° 0 mm 2 mps 769 mmHg 34%
    23:00 -3°C° 0 mm 2 mps 768 mmHg 34%

    Day after tomorrow, 18 November, Sunday

    Time Temperature Precipitation Wind Pressure Humidity
    00:00 -1°C° 0 mm 1 mps 768 mmHg 34%
    01:00 -1°C° 0 mm 1 mps 767 mmHg 34%
    02:00 -1°C° 0 mm 1 mps 767 mmHg 34%
    03:00 -1°C° 0 mm 1 mps 767 mmHg 35%
    04:00 -1°C° 0 mm 1 mps 766 mmHg 35%
    05:00 -1°C° 0 mm 1 mps 766 mmHg 35%
    06:00 0°C° 0 mm 1 mps 765 mmHg 34%
    07:00 0°C° 0 mm 1 mps 765 mmHg 34%
    08:00 +1°C° 0 mm 1 mps 765 mmHg 33%
    09:00 +1°C° 0 mm 1 mps 765 mmHg 32%
    10:00 +2°C° 0 mm 1 mps 764 mmHg 31%
    11:00 +3°C° 0 mm 1 mps 764 mmHg 31%
    12:00 +4°C° 0 mm 1 mps 764 mmHg 30%
    13:00 +4°C° 0 mm 1 mps 764 mmHg 32%
    14:00 +4°C° 0 mm 1 mps 764 mmHg 34%
    15:00 +4°C° 0 mm 1 mps 763 mmHg 36%
    16:00 +3°C° 0 mm 1 mps 763 mmHg 38%
    17:00 +2°C° 0 mm 1 mps 763 mmHg 41%
    18:00 -1°C° 0 mm 2 mps 763 mmHg 43%
    19:00 -2°C° 0 mm 2 mps 764 mmHg 44%
    20:00 -2°C° 0 mm 2 mps 764 mmHg 45%
    21:00 -2°C° 0 mm 2 mps 764 mmHg 46%
    22:00 0°C° 0 mm 1 mps 764 mmHg 46%
    23:00 0°C° 0 mm 1 mps 764 mmHg 46%

    19 November, Monday

    Time Temperature Precipitation Wind Pressure Humidity
    00:00 0°C° 0 mm 1 mps 764 mmHg 46%
    01:00 -1°C° 0 mm 1 mps 764 mmHg 46%
    02:00 -3°C° 0 mm 2 mps 765 mmHg 46%
    03:00 -3°C° 0 mm 2 mps 765 mmHg 46%
    04:00 -3°C° 0 mm 2 mps 765 mmHg 46%
    05:00 -3°C° 0 mm 2 mps 765 mmHg 46%
    06:00 -3°C° 0 mm 2 mps 765 mmHg 45%
    07:00 -2°C° 0 mm 3 mps 766 mmHg 42%
    08:00 -2°C° 0 mm 3 mps 766 mmHg 39%
    09:00 -1°C° 0 mm 3 mps 767 mmHg 37%
    10:00 0°C° 0 mm 3 mps 767 mmHg 35%
    11:00 +1°C° 0 mm 3 mps 767 mmHg 33%
    12:00 +2°C° 0 mm 3 mps 767 mmHg 31%
    13:00 +2°C° 0 mm 3 mps 767 mmHg 33%
    14:00 +2°C° 0 mm 3 mps 767 mmHg 36%
    15:00 +2°C° 0 mm 3 mps 767 mmHg 38%
    16:00 +1°C° 0 mm 3 mps 768 mmHg 43%
    17:00 0°C° 0 mm 3 mps 768 mmHg 47%
    18:00 -2°C° 0 mm 4 mps 768 mmHg 51%
    19:00 -2°C° 0 mm 4 mps 769 mmHg 53%
    20:00 -3°C° 0 mm 4 mps 769 mmHg 55%
    21:00 -3°C° 0 mm 4 mps 769 mmHg 57%
    22:00 -3°C° 0 mm 4 mps 769 mmHg 57%
    23:00 -3°C° 0 mm 4 mps 769 mmHg 56%

    20 November, Tuesday

    Time Temperature Precipitation Wind Pressure Humidity
    00:00 -2°C° 0 mm 3 mps 770 mmHg 55%
    01:00 -2°C° 0 mm 3 mps 770 mmHg 53%
    02:00 -2°C° 0 mm 3 mps 770 mmHg 51%
    03:00 -4°C° 0 mm 3 mps 770 mmHg 48%
    04:00 -4°C° 0 mm 3 mps 770 mmHg 46%
    05:00 -4°C° 0 mm 4 mps 770 mmHg 43%
    06:00 -4°C° 0 mm 4 mps 770 mmHg 40%
    07:00 -3°C° 0 mm 4 mps 770 mmHg 37%
    08:00 -3°C° 0 mm 4 mps 770 mmHg 35%
    09:00 -3°C° 0 mm 4 mps 770 mmHg 32%
    10:00 -2°C° 0 mm 4 mps 770 mmHg 31%
    11:00 -1°C° 0 mm 4 mps 770 mmHg 30%
    12:00 0°C° 0 mm 4 mps 770 mmHg 28%
    13:00 0°C° 0 mm 4 mps 770 mmHg 29%
    14:00 +1°C° 0 mm 3 mps 770 mmHg 30%
    15:00 +1°C° 0 mm 3 mps 770 mmHg 31%
    16:00 0°C° 0 mm 3 mps 770 mmHg 32%
    17:00 0°C° 0 mm 3 mps 770 mmHg 33%
    18:00 -1°C° 0 mm 3 mps 770 mmHg 34%
    19:00 -1°C° 0 mm 3 mps 770 mmHg 35%
    20:00 -1°C° 0 mm 3 mps 770 mmHg 35%
    21:00 -1°C° 0 mm 3 mps 770 mmHg 36%
    22:00 -2°C° 0 mm 3 mps 770 mmHg 36%
    23:00 -2°C° 0 mm 3 mps 769 mmHg 37%

    21 November, Wednesday

    Time Temperature Precipitation Wind Pressure Humidity
    00:00 -2°C° 0 mm 3 mps 769 mmHg 38%
    01:00 -2°C° 0 mm 3 mps 769 mmHg 39%
    02:00 -2°C° 0 mm 3 mps 769 mmHg 40%
    03:00 -2°C° 0 mm 3 mps 769 mmHg 41%
    04:00 -2°C° 0 mm 3 mps 769 mmHg 43%
    05:00 -4°C° 0 mm 3 mps 768 mmHg 45%
    06:00 -4°C° 0 mm 3 mps 768 mmHg 47%
    07:00 -4°C° 0 mm 3 mps 768 mmHg 46%
    08:00 -3°C° 0 mm 4 mps 768 mmHg 45%
    09:00 -2°C° 0 mm 4 mps 768 mmHg 44%
    10:00 -1°C° 0 mm 4 mps 768 mmHg 42%
    11:00 0°C° 0 mm 4 mps 767 mmHg 40%
    12:00 +1°C° 0 mm 4 mps 767 mmHg 37%
    13:00 +1°C° 0 mm 4 mps 767 mmHg 39%
    14:00 +1°C° 0 mm 4 mps 766 mmHg 41%
    15:00 +1°C° 0 mm 4 mps 766 mmHg 42%
    16:00 0°C° 0 mm 4 mps 766 mmHg 48%
    17:00 -1°C° 0 mm 4 mps 766 mmHg 54%
    18:00 -1°C° 0 mm 3 mps 765 mmHg 60%
    19:00 -1°C° 0 mm 3 mps 765 mmHg 62%
    20:00 -2°C° 0 mm 3 mps 765 mmHg 64%
    21:00 -2°C° 0 mm 3 mps 765 mmHg 67%
    22:00 -2°C° 0 mm 3 mps 765 mmHg 68%
    23:00 -2°C° 0 mm 3 mps 765 mmHg 69%
    Show more